When you browse on this site, cookies collect data to enhance your experience and personalize the content and advertising you see.
Visit our Privacy Policy to learn more. By continuing to use the site, you agree to this use of cookies and data.
  • In Hungary
  • List of Countries
  • For 7 days
  • Water Temperature
  • Weather Map
  • News
  • Weather Widgets
  • user-avatar
    Login

    Hourly Weather Zelenyi Hai

    Today, 22 August, Thursday

    Time Temperature Precipitation Wind Pressure Humidity
    00:00 +16°C° 0 mm 3 mps 747 mmHg 87%
    01:00 +15°C° 0 mm 2 mps 747 mmHg 89%
    02:00 +15°C° 0 mm 1 mps 747 mmHg 91%
    03:00 +14°C° 0 mm 1 mps 747 mmHg 91%
    04:00 +14°C° 0 mm 1 mps 747 mmHg 92%
    05:00 +13°C° 0 mm 2 mps 746 mmHg 93%
    06:00 +14°C° 0 mm 2 mps 747 mmHg 89%
    07:00 +14°C° 0 mm 3 mps 747 mmHg 86%
    08:00 +14°C° 0 mm 3 mps 747 mmHg 82%
    09:00 +17°C° 0.1 mm 3 mps 747 mmHg 78%
    10:00 +18°C° 0.1 mm 3 mps 747 mmHg 75%
    11:00 +19°C° 0.1 mm 3 mps 747 mmHg 71%
    12:00 +20°C° 0.1 mm 3 mps 747 mmHg 69%
    13:00 +21°C° 0.1 mm 4 mps 747 mmHg 67%
    14:00 +22°C° 0.1 mm 4 mps 747 mmHg 64%
    15:00 +22°C° 0 mm 4 mps 746 mmHg 66%
    16:00 +22°C° 0 mm 4 mps 746 mmHg 67%
    17:00 +22°C° 0 mm 4 mps 746 mmHg 69%
    18:00 +21°C° 0 mm 3 mps 746 mmHg 73%
    19:00 +20°C° 0 mm 3 mps 746 mmHg 78%
    20:00 +19°C° 0 mm 3 mps 746 mmHg 82%
    21:00 +18°C° 0.1 mm 3 mps 746 mmHg 83%
    22:00 +18°C° 0.1 mm 3 mps 746 mmHg 84%
    23:00 +17°C° 0.1 mm 3 mps 746 mmHg 84%

    Tomorrow, 23 August, Friday

    Time Temperature Precipitation Wind Pressure Humidity
    00:00 +17°C° 0.3 mm 3 mps 746 mmHg 87%
    01:00 +17°C° 0.3 mm 3 mps 746 mmHg 89%
    02:00 +16°C° 0.3 mm 3 mps 746 mmHg 92%
    03:00 +16°C° 0.2 mm 3 mps 746 mmHg 93%
    04:00 +16°C° 0.2 mm 3 mps 746 mmHg 95%
    05:00 +14°C° 0.2 mm 3 mps 746 mmHg 96%
    06:00 +16°C° 0 mm 3 mps 746 mmHg 93%
    07:00 +17°C° 0 mm 4 mps 746 mmHg 91%
    08:00 +18°C° 0 mm 4 mps 746 mmHg 88%
    09:00 +20°C° 0 mm 4 mps 746 mmHg 82%
    10:00 +21°C° 0 mm 5 mps 746 mmHg 76%
    11:00 +23°C° 0 mm 5 mps 746 mmHg 70%
    12:00 +25°C° 0 mm 5 mps 746 mmHg 68%
    13:00 +25°C° 0 mm 5 mps 746 mmHg 66%
    14:00 +26°C° 0 mm 5 mps 746 mmHg 63%
    15:00 +26°C° 0 mm 5 mps 745 mmHg 64%
    16:00 +26°C° 0 mm 5 mps 745 mmHg 65%
    17:00 +26°C° 0 mm 5 mps 745 mmHg 66%
    18:00 +23°C° 0 mm 4 mps 745 mmHg 71%
    19:00 +22°C° 0 mm 4 mps 745 mmHg 76%
    20:00 +20°C° 0 mm 3 mps 745 mmHg 82%
    21:00 +20°C° 0 mm 4 mps 745 mmHg 82%
    22:00 +19°C° 0 mm 4 mps 745 mmHg 82%
    23:00 +18°C° 0 mm 4 mps 745 mmHg 83%

    Day after tomorrow, 24 August, Saturday

    Time Temperature Precipitation Wind Pressure Humidity
    00:00 +18°C° 0 mm 4 mps 745 mmHg 82%
    01:00 +17°C° 0 mm 4 mps 745 mmHg 82%
    02:00 +17°C° 0 mm 4 mps 745 mmHg 82%
    03:00 +17°C° 0 mm 4 mps 745 mmHg 83%
    04:00 +15°C° 0 mm 4 mps 745 mmHg 84%
    05:00 +15°C° 0 mm 4 mps 744 mmHg 85%
    06:00 +17°C° 0 mm 4 mps 744 mmHg 83%
    07:00 +18°C° 0 mm 4 mps 744 mmHg 80%
    08:00 +19°C° 0 mm 5 mps 744 mmHg 78%
    09:00 +20°C° 0 mm 5 mps 744 mmHg 74%
    10:00 +22°C° 0 mm 5 mps 744 mmHg 71%
    11:00 +23°C° 0 mm 5 mps 745 mmHg 67%
    12:00 +25°C° 0 mm 5 mps 744 mmHg 65%
    13:00 +26°C° 0 mm 5 mps 744 mmHg 63%
    14:00 +27°C° 0 mm 5 mps 744 mmHg 61%
    15:00 +27°C° 0 mm 5 mps 744 mmHg 62%
    16:00 +27°C° 0 mm 4 mps 743 mmHg 63%
    17:00 +27°C° 0 mm 4 mps 743 mmHg 64%
    18:00 +25°C° 0 mm 4 mps 743 mmHg 67%
    19:00 +22°C° 0 mm 4 mps 743 mmHg 70%
    20:00 +21°C° 0 mm 4 mps 743 mmHg 73%
    21:00 +20°C° 0 mm 4 mps 743 mmHg 72%
    22:00 +19°C° 0 mm 4 mps 743 mmHg 71%
    23:00 +19°C° 0 mm 4 mps 743 mmHg 71%

    25 August, Sunday

    Time Temperature Precipitation Wind Pressure Humidity
    00:00 +18°C° 0 mm 3 mps 743 mmHg 72%
    01:00 +18°C° 0 mm 3 mps 743 mmHg 74%
    02:00 +17°C° 0 mm 3 mps 743 mmHg 75%
    03:00 +17°C° 0 mm 3 mps 742 mmHg 78%
    04:00 +17°C° 0 mm 3 mps 742 mmHg 81%
    05:00 +16°C° 0 mm 3 mps 742 mmHg 84%
    06:00 +17°C° 0 mm 3 mps 742 mmHg 82%
    07:00 +19°C° 0 mm 3 mps 742 mmHg 80%
    08:00 +20°C° 0 mm 4 mps 742 mmHg 78%
    09:00 +22°C° 0 mm 4 mps 743 mmHg 73%
    10:00 +25°C° 0 mm 4 mps 743 mmHg 68%
    11:00 +26°C° 0 mm 4 mps 743 mmHg 63%
    12:00 +27°C° 0 mm 4 mps 743 mmHg 60%
    13:00 +28°C° 0 mm 4 mps 743 mmHg 57%
    14:00 +29°C° 0 mm 5 mps 743 mmHg 53%
    15:00 +29°C° 0 mm 4 mps 742 mmHg 55%
    16:00 +28°C° 0 mm 4 mps 742 mmHg 57%
    17:00 +28°C° 0 mm 4 mps 742 mmHg 59%
    18:00 +26°C° 0 mm 4 mps 742 mmHg 65%
    19:00 +24°C° 0 mm 3 mps 742 mmHg 70%
    20:00 +21°C° 0 mm 3 mps 742 mmHg 76%
    21:00 +20°C° 0 mm 3 mps 743 mmHg 80%
    22:00 +20°C° 0 mm 3 mps 743 mmHg 84%
    23:00 +19°C° 0 mm 3 mps 743 mmHg 89%

    26 August, Monday

    Time Temperature Precipitation Wind Pressure Humidity
    00:00 +19°C° 0 mm 3 mps 743 mmHg 89%
    01:00 +18°C° 0 mm 3 mps 743 mmHg 88%
    02:00 +18°C° 0 mm 3 mps 743 mmHg 88%
    03:00 +18°C° 0 mm 3 mps 743 mmHg 86%
    04:00 +17°C° 0 mm 3 mps 743 mmHg 84%
    05:00 +17°C° 0 mm 3 mps 743 mmHg 82%
    06:00 +18°C° 0 mm 3 mps 743 mmHg 79%
    07:00 +19°C° 0 mm 4 mps 743 mmHg 75%
    08:00 +20°C° 0 mm 4 mps 744 mmHg 71%
    09:00 +21°C° 0 mm 4 mps 744 mmHg 67%
    10:00 +23°C° 0 mm 4 mps 744 mmHg 63%
    11:00 +26°C° 0 mm 4 mps 744 mmHg 59%
    12:00 +27°C° 0 mm 4 mps 744 mmHg 56%
    13:00 +28°C° 0 mm 4 mps 744 mmHg 54%
    14:00 +29°C° 0 mm 4 mps 743 mmHg 51%
    15:00 +29°C° 0 mm 4 mps 743 mmHg 54%
    16:00 +29°C° 0 mm 4 mps 743 mmHg 56%
    17:00 +28°C° 0 mm 4 mps 743 mmHg 58%
    18:00 +26°C° 0 mm 4 mps 743 mmHg 64%
    19:00 +24°C° 0 mm 3 mps 743 mmHg 71%
    20:00 +21°C° 0 mm 3 mps 743 mmHg 77%
    21:00 +21°C° 0 mm 3 mps 743 mmHg 77%
    22:00 +20°C° 0 mm 3 mps 743 mmHg 78%
    23:00 +19°C° 0 mm 3 mps 743 mmHg 79%

    27 August, Tuesday

    Time Temperature Precipitation Wind Pressure Humidity
    00:00 +18°C° 0 mm 3 mps 743 mmHg 78%
    01:00 +18°C° 0 mm 3 mps 743 mmHg 77%
    02:00 +18°C° 0 mm 3 mps 743 mmHg 75%
    03:00 +17°C° 0 mm 3 mps 743 mmHg 76%
    04:00 +17°C° 0 mm 2 mps 743 mmHg 77%
    05:00 +17°C° 0 mm 2 mps 742 mmHg 77%
    06:00 +18°C° 0 mm 2 mps 743 mmHg 75%
    07:00 +19°C° 0 mm 2 mps 743 mmHg 73%
    08:00 +21°C° 0 mm 2 mps 743 mmHg 71%
    09:00 +24°C° 0 mm 2 mps 743 mmHg 66%
    10:00 +26°C° 0 mm 2 mps 743 mmHg 61%
    11:00 +28°C° 0 mm 2 mps 743 mmHg 56%
    12:00 +29°C° 0 mm 2 mps 743 mmHg 53%
    13:00 +30°C° 0 mm 2 mps 743 mmHg 50%
    14:00 +31°C° 0 mm 2 mps 743 mmHg 47%
    15:00 +31°C° 0 mm 2 mps 742 mmHg 49%
    16:00 +31°C° 0 mm 2 mps 742 mmHg 51%
    17:00 +30°C° 0 mm 2 mps 742 mmHg 53%
    18:00 +28°C° 0 mm 2 mps 742 mmHg 58%
    19:00 +26°C° 0 mm 2 mps 742 mmHg 63%
    20:00 +24°C° 0 mm 2 mps 742 mmHg 69%
    21:00 +23°C° 0 mm 2 mps 742 mmHg 69%
    22:00 +21°C° 0 mm 2 mps 742 mmHg 70%
    23:00 +21°C° 0 mm 2 mps 742 mmHg 71%
    Show more